Home > Weather > Landsberg am Lech > Past weeks

Flag for Germany Past Weather in Landsberg am Lech, Bavaria, Germany — Yesterday and Last 2 Weeks

Now
68 °F

Light rain. Partly cloudy.


Feels Like: 68 °F
Forecast: 64 / 78 °F
Wind: 9 mph from West

Location: Landsberg

Current Time: Jun 25, 2016 at 1:53:37 AM

Latest Report: Jun 25, 2016 at 1:20 AM


Visibility: N/A

Pressure: 30.07 "Hg (28.06 "Hg at 593m altitude)

Humidity: 69%

Dew Point: 57 °F

Location of Landsberg am LechLocation

Past Weather in Landsberg am Lech — Graph

°F

Landsberg am Lech Temperature Yesterday

Maximum temperature yesterday: 88 °F (at 4:20 PM)
Minimum temperature yesterday: 59 °F (at 4:20 AM)
Average temperature yesterday: 75 °F

High & Low Weather Summary for the Past Weeks

 TemperatureHumidityPressure
High88 °F (Jun 24, 4:20 PM)100% (Jun 14, 4:20 AM)30.30 "Hg (Jun 14, 4:20 AM)
Low48 °F (Jun 10, 5:20 AM)40% (Jun 23, 1:20 PM)29.59 "Hg (Jun 14, 2:20 PM)
Average61 °F75%29.96 "Hg
* Reported Jun 10 12:20 AM — Jun 25 12:20 AM, Landsberg am Lech, Weather by CustomWeather, © 2016

Note: Actual official high and low records may vary slightly from our data, if they occured in-between our weather recording intervals... More about our weather records

Advertising

Landsberg am Lech Weather History for the Previous 24 Hours

Scroll right to see more
 ConditionsComfort  
Time TempWeatherWind HumidityBarometerVisibility
12:20 AM
Sat, Jun 25
70 °FPassing clouds.8 mph69%30.04 "HgN/A
11:20 PM
Fri, Jun 24
73 °FPartly cloudy.13 mph57%30.04 "HgN/A
10:20 PM73 °FPassing clouds.6 mph69%30.04 "HgN/A
9:20 PM77 °FScattered clouds.2 mph57%30.01 "HgN/A
8:20 PM81 °FPassing clouds.6 mph51%30.01 "HgN/A
7:20 PM84 °FPassing clouds.6 mph48%30.01 "HgN/A
6:20 PM86 °FPassing clouds.9 mph46%30.01 "HgN/A
5:20 PM88 °FPassing clouds.3 mph40%30.04 "HgN/A
4:20 PM88 °FPassing clouds.5 mph40%30.07 "HgN/A
3:20 PM86 °FPassing clouds.6 mph43%30.07 "HgN/A
2:20 PM86 °FPassing clouds.8 mph43%30.09 "HgN/A
1:20 PM84 °FPassing clouds.8 mph48%30.09 "HgN/A
12:20 PM84 °FPassing clouds.6 mph45%30.12 "HgN/A
11:20 AM81 °FPassing clouds.8 mph51%30.12 "HgN/A
10:20 AM79 °FPassing clouds.6 mph58%30.12 "HgN/A
9:20 AM73 °FMild.9 mph65%30.12 "HgN/A
8:20 AM70 °FMild.6 mph73%30.12 "HgN/A
7:20 AM64 °FMild.5 mph83%30.12 "HgN/A
6:20 AM59 °FCool.2 mph88%30.12 "HgN/A
5:20 AM61 °FFog.2 mph88%30.12 "HgN/A
4:20 AM59 °FCool.3 mph94%30.09 "HgN/A
3:20 AM61 °FCool.2 mph94%30.12 "HgN/A
2:20 AM64 °FMild.2 mph78%30.12 "HgN/A
1:20 AM64 °FMild.5 mph83%30.12 "HgN/A
Weather by CustomWeather, © 2016

See weather overviewHow to use our weather pages